Weather observations for the past three days for
Stampede Pass
Imperial (Metric)
Date Time (pdt) Wind (mph) Vis. (mi.) Weather Sky Cond. Temperature (ºF) Relative Humidity Wind Chill (°F) Heat Index (°F) Pressure Precipitation (in)
Air Dwpt 6 hour altimeter (in) sea level (mb) 1 hr 3 hr 6 hr
Max. Min.
21 15:56 SW 9 G 18 10.00 Fair CLR 63 59 87% 30.17 1018.4
21 14:56 Calm 10.00 Partly Cloudy FEW050 SCT075 73 59 62% 30.16 1017.4
21 13:56 SW 7 10.00 Fair CLR 66.9 60.1 79% 30.17 1018.0
21 12:56 SW 5 10.00 Mostly Cloudy FEW070 FEW100 BKN120 64.9 57.9 78% 30.18 1018.8
21 11:56 Calm 10.00 Fair CLR 68 57 68% 30.18 1018.7
21 10:56 SW 8 10.00 Fair CLR 61 57.9 75 61 90% 30.2 1019.8
21 09:56 SW 6 10.00 Fair CLR 64 57.9 81% 30.17 1018.8
21 08:56 SW 6 10.00 Fair CLR 70 59 68% 30.15 1017.5
21 07:56 Calm 10.00 Fair CLR 72 51.1 48% 30.15 1017.2
21 06:56 SW 5 10.00 Fair CLR 62.1 55.9 80% 30.18 1018.3
21 05:56 SW 6 10.00 Fair CLR 62.1 55.9 80% 30.19 1018.8
21 04:56 SW 5 10.00 Fair CLR 68 55 75 68 63% 30.18 1017.6
21 03:56 Calm 10.00 Fair CLR 71.1 50 47% 30.16 1016.9
21 02:56 Calm 10.00 Fair CLR 70 52 53% 30.16 1017.1
21 01:56 Calm 10.00 Fair CLR 73 51.1 46% 30.17 1016.9
21 00:56 Calm 10.00 Fair CLR 69.1 55.9 63% 30.18 1017.5
20 23:56 SW 3 10.00 Fair CLR 70 55.9 61% 30.19 1018.2
20 22:56 SW 3 10.00 Fair CLR 69.1 55.9 82.9 66.9 63% 30.2 1018.8
20 21:56 SW 3 10.00 Fair CLR 66.9 57 71% 30.21 1019.2
20 20:56 SW 5 10.00 Fair CLR 69.1 57 66% 30.2 1019.3
20 19:56 SW 5 0.00 Fair CLR 73.4 57.2 57% 30.21 0.0
20 18:56 Vrbl 3 10.00 Fair CLR 77 57.9 52% 79 30.21 1019.6
20 17:56 Vrbl 6 10.00 Fair CLR 80.1 59 49% 81 30.21 1019.6
20 16:56 Vrbl 3 10.00 Fair CLR 82.9 57.9 87.1 77 43% 83 30.22 1019.7
20 15:56 Vrbl 5 10.00 Fair CLR 84 57 40% 83 30.23 1020.0
20 13:56 Calm 10.00 Fair CLR 84.9 45 25% 82 30.25 1020.7
20 12:56 Calm 10.00 Fair CLR 84 50 31% 82 30.26 1021.0
20 11:56 Calm 10.00 Fair CLR 82 50 33% 81 30.26 1021.2
20 10:56 Calm 10.00 Fair CLR 77 51.1 77 55.9 40% 78 30.26 1021.6
20 09:56 Calm 10.00 Fair CLR 75 54 48% 78 30.26 1021.6
20 08:56 Calm 10.00 Fair CLR 70 53.1 55% 30.26 1022.0
20 07:56 Calm 10.00 Fair CLR 64.9 46.9 52% 30.26 1021.7
20 06:56 SW 3 10.00 Fair CLR 60.1 46.9 62% 30.26 1021.8
20 05:56 Calm 10.00 Fair CLR 57 46 67% 30.26 1021.8
20 04:56 Calm 10.00 Fair CLR 57 46 60.1 57 67% 30.26 1021.9
20 03:56 Calm 10.00 Fair CLR 57 46.9 69% 30.26 1021.8
20 02:56 SW 3 10.00 Fair CLR 57.9 46.9 67% 30.26 1021.8
20 01:56 SW 3 10.00 Fair CLR 57 48 72% 30.27 1022.3
20 00:56 SW 3 10.00 Fair CLR 57.9 48 70% 30.28 1022.5
19 23:56 Vrbl 3 10.00 Fair CLR 59 48 67% 30.28 1022.7
19 22:56 SW 3 10.00 Fair CLR 59 48 75 59 67% 30.28 1022.9
19 21:56 SW 5 10.00 Fair CLR 60.1 50 70% 30.28 1023.1
19 20:56 Vrbl 3 10.00 Fair CLR 62.1 51.1 67% 30.28 1023.0
19 19:56 Calm 10.00 Fair CLR 68 52 57% 30.28 1022.7
19 18:56 Vrbl 3 10.00 Fair CLR 72 50 46% 30.28 1022.4
19 17:56 Vrbl 7 10.00 Fair CLR 73.9 50 43% 30.28 1022.5
19 16:56 W 8 G 17 10.00 Fair CLR 73.9 48.9 75.9 68 41% 30.28 1022.8
19 15:56 Calm 10.00 Fair CLR 75 52 45% 78 30.28 1022.8
19 14:56 Vrbl 3 10.00 Fair CLR 75.9 51.1 42% 78 30.29 1022.8
19 13:56 Calm 10.00 Fair CLR 75 50 42% 78 30.29 1022.9
19 12:56 Vrbl 7 10.00 Fair CLR 73 50 44% 30.29 1023.1
19 11:56 Calm 10.00 Fair CLR 71.1 52 51% 30.29 1023.0
19 10:56 Calm 10.00 Fair CLR 69.1 55 69.1 54 61% 30.28 1022.9
19 09:56 Vrbl 3 10.00 Fair CLR 66 55 68% 30.28 1023.0
19 08:56 Vrbl 5 10.00 Fair CLR 62.1 54 75% 30.27 1022.7
19 07:56 Vrbl 3 10.00 Fair CLR 59 54 83% 30.26 1022.3
19 06:56 SW 3 10.00 Fair CLR 57 54 90% 30.25 1021.7
19 05:56 Vrbl 3 10.00 Fair CLR 55.9 54 93% 30.24 1021.5
19 04:56 Calm 10.00 Fair CLR 54 54 57.9 54 100% 30.23 1021.2
19 03:56 Vrbl 3 10.00 Fair CLR 54 54 100% 30.23 1020.8
19 02:56 Vrbl 3 10.00 Fair CLR 55 55 100% 30.23 1020.6
19 01:56 SW 3 10.00 Fair CLR 55 55 100% 30.22 1020.5
19 00:56 Calm 10.00 Fair CLR 55.9 55 97% 30.23 1020.8
18 23:56 Calm 10.00 Fair CLR 55.9 55 97% 30.23 1021.1
18 22:56 Vrbl 3 10.00 Fair CLR 57.9 55 73.9 57.9 90% 30.23 1021.2
18 21:56 Calm 10.00 Fair CLR 60.1 55.9 86% 30.22 1021.0
18 20:56 Calm 10.00 Fair CLR 63 57.9 84% 30.2 1020.3
18 19:56 Vrbl 7 10.00 Fair CLR 66.9 59 76% 30.19 1019.7
18 18:56 Vrbl 6 10.00 Fair CLR 70 60.1 71% 30.18 1019.2
18 17:56 Vrbl 5 10.00 Fair CLR 72 59 64% 30.17 1018.8
18 16:56 Vrbl 7 10.00 Fair CLR 73.9 57.9 77 69.1 57% 30.17 1018.7
Date Time (pdt) Wind (mph) Vis. (mi.) Weather Sky Cond. Air Dwpt Max. Min. Relative Humidity Wind Chill (°F) Heat Index (°F) altimeter (in) sea level (mb) 1 hr 3 hr 6 hr
6 hour
Temperature (ºF) Pressure Precipitation (in)